TimeEDT,TemperatureF,Dew PointF,Humidity,Sea Level PressureIn,VisibilityMPH,Wind Direction,Wind SpeedMPH,Gust SpeedMPH,PrecipitationIn,Events,Conditions,WindDirDegrees,DateUTC
12:58 AM,41.0,34.0,76,30.34,10.0,Calm,Calm,-,N/A,,Clear,0,2013-10-26 04:58:00
1:58 AM,41.0,35.1,79,30.32,10.0,Calm,Calm,-,N/A,,Clear,0,2013-10-26 05:58:00
2:58 AM,43.0,35.1,74,30.30,10.0,NNW,5.8,-,N/A,,Clear,340,2013-10-26 06:58:00
3:58 AM,45.0,36.0,71,30.29,10.0,NNW,5.8,-,N/A,,Clear,340,2013-10-26 07:58:00
4:58 AM,46.0,36.0,68,30.28,10.0,North,9.2,-,N/A,,Clear,350,2013-10-26 08:58:00
5:58 AM,45.0,36.0,71,30.29,10.0,North,6.9,-,N/A,,Clear,360,2013-10-26 09:58:00
6:58 AM,45.0,36.0,71,30.29,10.0,North,6.9,-,N/A,,Clear,350,2013-10-26 10:58:00
7:58 AM,46.9,37.0,68,30.30,10.0,NNW,6.9,-,N/A,,Clear,340,2013-10-26 11:58:00
8:58 AM,50.0,37.0,61,30.31,10.0,NNW,6.9,-,N/A,,Clear,340,2013-10-26 12:58:00
9:58 AM,54.0,37.0,53,30.31,10.0,NNW,8.1,-,N/A,,Clear,340,2013-10-26 13:58:00
10:58 AM,57.0,37.9,49,30.29,10.0,NNW,10.4,-,N/A,,Clear,330,2013-10-26 14:58:00
11:58 AM,59.0,37.9,46,30.27,10.0,NNW,8.1,-,N/A,,Clear,330,2013-10-26 15:58:00
12:58 PM,60.1,39.9,47,30.25,10.0,NW,9.2,-,N/A,,Mostly Cloudy,310,2013-10-26 16:58:00
1:58 PM,60.1,39.9,47,30.21,10.0,NNW,5.8,-,N/A,,Overcast,330,2013-10-26 17:58:00
2:58 PM,62.1,42.1,48,30.18,10.0,NNW,3.5,-,N/A,,Scattered Clouds,340,2013-10-26 18:58:00
3:58 PM,62.1,45.0,53,30.17,10.0,SW,6.9,-,N/A,,Scattered Clouds,230,2013-10-26 19:58:00
4:58 PM,62.1,45.0,53,30.14,10.0,Variable,4.6,-,N/A,,Clear,0,2013-10-26 20:58:00
5:58 PM,59.0,45.0,60,30.13,10.0,WSW,5.8,-,N/A,,Clear,240,2013-10-26 21:58:00
6:58 PM,55.0,45.0,69,30.12,10.0,Calm,Calm,-,N/A,,Clear,0,2013-10-26 22:58:00
7:58 PM,57.0,46.9,69,30.12,10.0,WSW,5.8,-,N/A,,Clear,240,2013-10-26 23:58:00
8:58 PM,55.0,46.0,72,30.13,10.0,West,4.6,-,N/A,,Clear,270,2013-10-27 00:58:00
9:58 PM,54.0,42.1,64,30.13,10.0,West,5.8,-,N/A,,Clear,270,2013-10-27 01:58:00
10:58 PM,53.1,39.9,61,30.12,10.0,WSW,4.6,-,N/A,,Clear,250,2013-10-27 02:58:00
11:58 PM,55.0,41.0,59,30.12,10.0,West,6.9,-,N/A,,Clear,270,2013-10-27 03:58:00